• In Uzbekistan
  • List of Countries
  • For 7 days
  • Water Temperature
  • Satellite Maps
  • Weather Map
  • Weather Widgets
  • user-avatar
    Login

    Hourly Weather Burshi

    Today, 17 October, Wednesday

    Time Temperature Precipitation Wind Pressure Humidity
    00:00 +3°C° 0 mm 1 mps 581 mmHg 81%
    01:00 +3°C° 0 mm 1 mps 581 mmHg 79%
    02:00 +3°C° 0 mm 1 mps 580 mmHg 77%
    03:00 +3°C° 0 mm 1 mps 580 mmHg 74%
    04:00 +3°C° 0 mm 1 mps 580 mmHg 71%
    05:00 +3°C° 0 mm 1 mps 580 mmHg 68%
    06:00 +2°C° 0 mm 1 mps 580 mmHg 65%
    07:00 +5°C° 0 mm 1 mps 581 mmHg 58%
    08:00 +7°C° 0 mm 1 mps 582 mmHg 52%
    09:00 +9°C° 0 mm 1 mps 583 mmHg 45%
    10:00 +8°C° 0 mm 2 mps 583 mmHg 44%
    11:00 +9°C° 0 mm 2 mps 584 mmHg 42%
    12:00 +10°C° 0 mm 2 mps 584 mmHg 41%
    13:00 +10°C° 0 mm 2 mps 583 mmHg 44%
    14:00 +10°C° 0 mm 2 mps 583 mmHg 48%
    15:00 +9°C° 0 mm 2 mps 583 mmHg 51%
    16:00 +8°C° 0 mm 2 mps 582 mmHg 61%
    17:00 +7°C° 0 mm 1 mps 581 mmHg 71%
    18:00 +5°C° 0 mm 1 mps 580 mmHg 81%
    19:00 +5°C° 0 mm 1 mps 580 mmHg 76%
    20:00 +4°C° 0 mm 1 mps 579 mmHg 72%
    21:00 +4°C° 0 mm 1 mps 579 mmHg 68%
    22:00 +4°C° 0 mm 1 mps 579 mmHg 61%
    23:00 +4°C° 0 mm 1 mps 579 mmHg 55%

    Tomorrow, 18 October, Thursday

    Time Temperature Precipitation Wind Pressure Humidity
    00:00 +4°C° 0 mm 1 mps 579 mmHg 49%
    01:00 +3°C° 0 mm 1 mps 579 mmHg 45%
    02:00 +3°C° 0 mm 1 mps 578 mmHg 41%
    03:00 +3°C° 0 mm 1 mps 578 mmHg 37%
    04:00 +3°C° 0 mm 1 mps 578 mmHg 34%
    05:00 +3°C° 0 mm 1 mps 578 mmHg 30%
    06:00 +3°C° 0 mm 1 mps 578 mmHg 27%
    07:00 +5°C° 0 mm 1 mps 579 mmHg 26%
    08:00 +7°C° 0 mm 1 mps 580 mmHg 25%
    09:00 +10°C° 0 mm 1 mps 582 mmHg 24%
    10:00 +10°C° 0 mm 1 mps 582 mmHg 25%
    11:00 +10°C° 0 mm 2 mps 582 mmHg 27%
    12:00 +12°C° 0 mm 2 mps 582 mmHg 28%
    13:00 +12°C° 0 mm 2 mps 582 mmHg 33%
    14:00 +10°C° 0 mm 2 mps 582 mmHg 37%
    15:00 +10°C° 0 mm 2 mps 582 mmHg 41%
    16:00 +9°C° 0 mm 1 mps 581 mmHg 52%
    17:00 +7°C° 0 mm 1 mps 580 mmHg 62%
    18:00 +5°C° 0 mm 1 mps 579 mmHg 73%
    19:00 +5°C° 0 mm 1 mps 579 mmHg 68%
    20:00 +4°C° 0 mm 1 mps 579 mmHg 63%
    21:00 +4°C° 0 mm 1 mps 579 mmHg 58%
    22:00 +4°C° 0 mm 1 mps 579 mmHg 54%
    23:00 +4°C° 0 mm 1 mps 578 mmHg 51%

    Day after tomorrow, 19 October, Friday

    Time Temperature Precipitation Wind Pressure Humidity
    00:00 +4°C° 0 mm 1 mps 578 mmHg 47%
    01:00 +3°C° 0 mm 1 mps 578 mmHg 45%
    02:00 +3°C° 0 mm 1 mps 578 mmHg 43%
    03:00 +3°C° 0 mm 1 mps 578 mmHg 40%
    04:00 +3°C° 0 mm 1 mps 578 mmHg 38%
    05:00 +3°C° 0 mm 1 mps 578 mmHg 35%
    06:00 +3°C° 0 mm 1 mps 578 mmHg 33%
    07:00 +5°C° 0 mm 1 mps 579 mmHg 30%
    08:00 +8°C° 0 mm 1 mps 580 mmHg 26%
    09:00 +10°C° 0 mm 1 mps 582 mmHg 23%
    10:00 +11°C° 0 mm 1 mps 582 mmHg 24%
    11:00 +12°C° 0 mm 1 mps 582 mmHg 25%
    12:00 +13°C° 0 mm 2 mps 582 mmHg 26%
    13:00 +12°C° 0 mm 2 mps 582 mmHg 30%
    14:00 +12°C° 0 mm 2 mps 581 mmHg 34%
    15:00 +12°C° 0 mm 2 mps 581 mmHg 38%
    16:00 +10°C° 0 mm 1 mps 580 mmHg 48%
    17:00 +8°C° 0 mm 1 mps 579 mmHg 58%
    18:00 +6°C° 0 mm 1 mps 578 mmHg 68%
    19:00 +5°C° 0 mm 1 mps 578 mmHg 66%
    20:00 +5°C° 0 mm 1 mps 578 mmHg 65%
    21:00 +4°C° 0 mm 2 mps 578 mmHg 64%
    22:00 +4°C° 0 mm 2 mps 578 mmHg 65%
    23:00 +4°C° 0 mm 2 mps 577 mmHg 65%

    20 October, Saturday

    Time Temperature Precipitation Wind Pressure Humidity
    00:00 +3°C° 0 mm 2 mps 577 mmHg 66%
    01:00 +3°C° 0 mm 2 mps 577 mmHg 66%
    02:00 +3°C° 0 mm 2 mps 577 mmHg 67%
    03:00 +3°C° 0 mm 2 mps 577 mmHg 67%
    04:00 +3°C° 0 mm 2 mps 576 mmHg 64%
    05:00 +3°C° 0 mm 2 mps 576 mmHg 61%
    06:00 +3°C° 0 mm 2 mps 576 mmHg 58%
    07:00 +5°C° 0 mm 2 mps 577 mmHg 49%
    08:00 +9°C° 0 mm 1 mps 579 mmHg 41%
    09:00 +11°C° 0 mm 1 mps 580 mmHg 32%
    10:00 +12°C° 0 mm 1 mps 580 mmHg 31%
    11:00 +13°C° 0 mm 2 mps 580 mmHg 29%
    12:00 +14°C° 0 mm 2 mps 580 mmHg 28%
    13:00 +14°C° 0 mm 2 mps 580 mmHg 30%
    14:00 +13°C° 0 mm 2 mps 580 mmHg 32%
    15:00 +13°C° 0 mm 2 mps 579 mmHg 34%
    16:00 +11°C° 0 mm 1 mps 578 mmHg 41%
    17:00 +9°C° 0 mm 1 mps 578 mmHg 47%
    18:00 +7°C° 0 mm 1 mps 577 mmHg 53%
    19:00 +7°C° 0 mm 1 mps 577 mmHg 50%
    20:00 +7°C° 0 mm 1 mps 576 mmHg 48%
    21:00 +6°C° 0 mm 1 mps 576 mmHg 45%
    22:00 +6°C° 0 mm 1 mps 576 mmHg 44%
    23:00 +6°C° 0 mm 1 mps 576 mmHg 43%

    21 October, Sunday

    Time Temperature Precipitation Wind Pressure Humidity
    00:00 +6°C° 0 mm 1 mps 576 mmHg 42%
    01:00 +6°C° 0 mm 1 mps 576 mmHg 42%
    02:00 +4°C° 0 mm 2 mps 576 mmHg 42%
    03:00 +4°C° 0 mm 2 mps 575 mmHg 42%
    04:00 +4°C° 0 mm 2 mps 575 mmHg 42%
    05:00 +4°C° 0 mm 2 mps 575 mmHg 43%
    06:00 +4°C° 0 mm 2 mps 575 mmHg 43%
    07:00 +7°C° 0 mm 1 mps 576 mmHg 39%
    08:00 +9°C° 0 mm 1 mps 578 mmHg 35%
    09:00 +11°C° 0 mm 1 mps 579 mmHg 30%
    10:00 +12°C° 0 mm 1 mps 579 mmHg 31%
    11:00 +13°C° 0 mm 2 mps 579 mmHg 32%
    12:00 +14°C° 0 mm 2 mps 579 mmHg 33%
    13:00 +13°C° 0 mm 2 mps 579 mmHg 36%
    14:00 +13°C° 0 mm 2 mps 578 mmHg 38%
    15:00 +13°C° 0 mm 2 mps 578 mmHg 41%
    16:00 +11°C° 0 mm 1 mps 577 mmHg 47%
    17:00 +9°C° 0 mm 1 mps 576 mmHg 53%
    18:00 +8°C° 0 mm 1 mps 575 mmHg 59%
    19:00 +8°C° 0 mm 1 mps 575 mmHg 59%
    20:00 +7°C° 0 mm 1 mps 575 mmHg 59%
    21:00 +7°C° 0 mm 1 mps 575 mmHg 59%
    22:00 +7°C° 0 mm 1 mps 575 mmHg 59%
    23:00 +6°C° 0 mm 2 mps 575 mmHg 60%

    22 October, Monday

    Time Temperature Precipitation Wind Pressure Humidity
    00:00 +6°C° 0 mm 2 mps 575 mmHg 60%
    01:00 +6°C° 0.1 mm 2 mps 574 mmHg 60%
    02:00 +7°C° 0.1 mm 1 mps 574 mmHg 60%
    03:00 +7°C° 0.1 mm 1 mps 574 mmHg 61%
    04:00 +6°C° 0 mm 1 mps 574 mmHg 61%
    05:00 +6°C° 0 mm 1 mps 574 mmHg 62%
    06:00 +6°C° 0 mm 1 mps 574 mmHg 63%
    07:00 +8°C° 0 mm 1 mps 575 mmHg 57%
    08:00 +9°C° 0 mm 1 mps 576 mmHg 52%
    09:00 +11°C° 0 mm 1 mps 577 mmHg 47%
    10:00 +12°C° 0 mm 1 mps 577 mmHg 45%
    11:00 +13°C° 0 mm 2 mps 578 mmHg 42%
    12:00 +13°C° 0 mm 2 mps 578 mmHg 40%
    13:00 +13°C° 0 mm 2 mps 578 mmHg 42%
    14:00 +13°C° 0 mm 2 mps 578 mmHg 44%
    15:00 +12°C° 0 mm 2 mps 577 mmHg 46%
    16:00 +10°C° 0 mm 2 mps 577 mmHg 53%
    17:00 +9°C° 0 mm 1 mps 576 mmHg 60%
    18:00 +8°C° 0 mm 1 mps 576 mmHg 67%
    19:00 +7°C° 0 mm 1 mps 576 mmHg 67%
    20:00 +7°C° 0 mm 1 mps 576 mmHg 68%
    21:00 +7°C° 0 mm 1 mps 576 mmHg 69%
    22:00 +6°C° 0 mm 1 mps 576 mmHg 69%
    23:00 +6°C° 0 mm 1 mps 576 mmHg 69%
    Show more